Location: Brad
(46.1333°N, 22.7833°E)
Time: 21:28:57
(UTC+00:00)

BREEZE-M DEB (TANK) - Pass Details

Date: 03 February 2023
Orbit: 426 x 13838 km, 45.9° (Epoch: 20 March)

Event Time Altitude Azimuth Distance (km) Brightness Sun altitude
Rises 17:16:28 0° 275° (W) 2,497 7.3 -17.6°
Reaches altitude 10° 17:17:58 10° 275° (W) 1,788 6.2 -17.8°
Maximum altitude 17:21:25 86° 189° (S) 818 3.1 -18.4°
Enters shadow 17:25:24 27° 100° (E) 2,258 4.8 -19.1°
